Temp
10 9 9 9 9 9 9 9 9 9 9 9 9 9 9 9 10 10 10 10 10 10 10 10 9 9 9 9 10 10 10 10 9 9 9 9 9 9 10 10 10 10
9 9 9 9 9 9 9 9 9 9 9 10 10 9 9 9 9 10 10 9 9 10 10 9 9 9 9 9 9 10 10 10 9 9 9 9 9 9 9 10 10 10
10 10 9 9 9 9 9 9 9 9 9 9 10 9 9 9 9 9 10 9 9 9 9 9 9 9 9 9 9 9 9 9 10 9 9 9 9 9 9 9 10 10
10 10 9 9 9 9 9 9 9 9 9 9 9 9 9 9 9 9 9 9 9 9 9 9 9 9 9 9 9 9 9 9 9 9 9 9 9 9 9 9 9 9
10 10 9 9 9 9 9 9 9 9 9 9 9 9 9 9 9 9 9 9 9 9 9 9 9 9 9 9 9 9 9 9 9 9 9 9 9 9 9 9 9 9
10 10 9 9 9 9 9 9 9 9 9 9 9 9 9 9 9 9 9 9 9 9 9 9 9 9 9 9 9 9 9 9 9 9 9 9 9 9 9 9 9 9
9 9 9 9 9 9 9 9 9 9 9 9 9 9 9 9 9 9 9 9 9 9 9 9 9 9 9 9 9 9 9 9 9 9 9 9 9 9 9 9 9 9
9 9 9 9 9 9 9 9 9 9 9 9 9 9 9 9 9 9 9 9 9 9 9 9 9 9 9 9 9 9 9 9 9 9 9 9 9 9 9 9 9 9
9 9 9 9 9 9 9 9 9 9 10 10 9 9 9 9 9 9 9 9 9 9 9 9 9 9 9 9 9 9 9 9 9 9 9 9 9 9 9 9 9 9
9 9 9 9 9 9 9 9 9 9 9 10 10 9 9 9 9 9 9 9 9 9 9 9 9 9 9 9 9 9 9 9 9 9 9 9 9 9 9 9 9 9
9 9 9 9 9 9 9 9 9 9 9 9 9 10 9 9 9 9 9 9 9 9 9 9 9 9 9 9 9 9 9 9 9 9 9 9 9 9 9 9 9 9
9 9 9 9 9 9 9 9 9 9 9 9 9 9 9 9 9 9 9 9 9 9 9 9 9 9 9 9 9 9 9 9 9 9 9 9 9 9 9 9 9 9
9 9 10 10 10 9 9 9 9 9 9 9 9 9 9 9 9 9 9 9 9 9 9 9 9 9 9 9 9 9 9 9 9 9 9 9 9 9 9 9 9 9
9 9 9 10 10 10 9 9 9 9 9 9 9 9 9 9 9 9 9 9 9 9 9 9 9 9 9 9 9 9 9 9 9 9 9 9 9 9 9 9 9 9
9 9 9 9 9 9 10 9 9 9 9 9 9 9 9 9 9 9 9 9 9 9 9 9 9 9 9 9 9 9 9 9 9 9 9 9 9 10 10 10 10 9
9 9 9 9 9 9 9 9 9 9 9 9 9 9 9 9 9 9 9 9 9 9 9 9 9 9 9 9 9 9 9 9 9 9 9 10 10 10 10 10 10 10
9 9 9 9 9 9 9 9 9 9 9 9 9 10 10 10 10 10 9 9 9 9 9 9 9 9 9 9 9 9 9 9 9 9 9 10 10 10 10 10 10 10
9 9 9 9 9 9 9 9 9 10 10 10 9 9 10 10 10 10 10 10 9 9 9 9 9 9 9 9 9 9 9 9 9 9 10 10 10 10 10 10 10 10
9 9 9 9 9 9 9 9 9 9 9 9 9 9 9 9 9 10 10 10 10 9 9 9 9 9 9 9 9 9 9 9 9 10 10 10 10 10 10 10 10 10
9 9 9 9 9 9 9 9 9 9 9 9 9 9 9 9 9 9 9 9 9 9 9 9 9 9 9 9 9 9 9 9 9 9 10 10 10 10 10 10 10 10
9 9 9 9 9 9 9 9 9 9 9 9 9 9 9 9 9 9 9 9 9 9 9 9 9 9 9 9 9 9 9 9 9 10 10 10 10 10 10 10 10 10
9 9 9 9 9 9 9 9 9 9 9 9 9 9 9 9 9 9 9 9 9 9 9 9 9 9 9 9 9 9 9 9 10 10 10 10 10 10 10 10 10 10
9 9 9 9 9 9 9 8 8 8 8 9 9 9 9 9 8 8 9 9 9 9 9 9 9 9 9 9 9 9 9 9 9 9 9 9 9 9 9 9 10 10
9 9 9 9 8 8 8 8 8 8 8 9 9 9 9 8 8 8 8 8 8 8 9 9 9 9 9 9 9 9 9 9 9 9 9 9 9 9 9 9 9 9
9 9 9 8 8 8 8 8 8 8 8 8 8 8 9 8 8 8 8 8 8 8 8 8 8 8 8 9 9 9 8 8 8 8 9 9 9 9 9 9 9 9
8 8 8 8 9 9 8 8 8 8 8 8 8 8 8 8 8 8 8 8 8 8 8 8 8 8 8 8 8 8 8 8 8 8 8 8 8 9 9 9 9 9
Height
3247 3248 3249 3250 3250 3251 3252 3252 3253 3253 3254 3254 3254 3255 3256 3257 3258 3259 3260 3260 3261 3262 3263 3264 3264 3265 3266 3266 3267 3268 3268 3268 3269 3269 3270 3270 3271 3271 3272 3273 3273 3274
3247 3248 3249 3249 3250 3251 3252 3252 3253 3253 3253 3254 3254 3255 3255 3256 3257 3258 3259 3260 3261 3261 3262 3263 3264 3264 3265 3265 3266 3267 3267 3268 3269 3269 3269 3270 3270 3271 3271 3272 3273 3273
3246 3247 3248 3249 3250 3250 3251 3252 3252 3253 3253 3253 3254 3254 3255 3256 3256 3257 3258 3259 3260 3261 3262 3262 3263 3264 3264 3265 3266 3266 3267 3267 3268 3269 3269 3269 3270 3270 3271 3271 3272 3272
3245 3246 3247 3248 3249 3249 3250 3251 3252 3252 3253 3253 3253 3254 3255 3255 3256 3257 3257 3258 3259 3260 3261 3262 3262 3263 3264 3264 3265 3265 3266 3267 3267 3268 3268 3269 3269 3270 3270 3271 3271 3272
3243 3245 3246 3247 3247 3248 3249 3250 3251 3251 3252 3252 3253 3253 3254 3254 3255 3256 3257 3257 3258 3259 3260 3261 3261 3262 3263 3264 3264 3265 3265 3266 3266 3267 3268 3268 3269 3269 3270 3270 3270 3271
3242 3243 3244 3245 3246 3247 3248 3249 3249 3250 3251 3251 3252 3252 3253 3253 3254 3255 3256 3257 3257 3258 3259 3260 3260 3261 3262 3263 3263 3264 3265 3265 3265 3266 3267 3267 3268 3268 3269 3269 3269 3270
3240 3241 3243 3244 3245 3245 3246 3247 3248 3249 3249 3250 3251 3251 3252 3253 3253 3254 3255 3256 3257 3257 3258 3259 3259 3260 3261 3261 3262 3263 3264 3264 3265 3265 3265 3266 3267 3267 3267 3268 3268 3269
3238 3240 3241 3242 3243 3244 3245 3246 3247 3248 3248 3249 3250 3250 3251 3252 3252 3253 3254 3254 3255 3256 3257 3258 3259 3259 3260 3261 3261 3262 3263 3263 3264 3264 3265 3265 3266 3266 3266 3266 3267 3267
3236 3238 3239 3240 3241 3242 3243 3244 3245 3246 3247 3248 3248 3249 3250 3250 3251 3252 3253 3253 3254 3255 3256 3257 3258 3259 3259 3260 3260 3261 3262 3262 3263 3263 3264 3264 3265 3265 3265 3265 3265 3266
3234 3235 3237 3238 3239 3240 3241 3242 3243 3244 3245 3246 3247 3248 3249 3249 3250 3251 3252 3253 3254 3254 3255 3256 3257 3258 3259 3259 3260 3261 3261 3261 3262 3262 3263 3263 3264 3264 3264 3264 3265 3265
3231 3233 3234 3236 3237 3238 3239 3240 3241 3242 3243 3244 3245 3247 3248 3248 3249 3250 3251 3252 3253 3253 3254 3255 3256 3257 3258 3259 3259 3260 3261 3261 3261 3262 3262 3262 3263 3263 3264 3264 3264 3264
3228 3230 3231 3233 3234 3236 3237 3238 3239 3240 3241 3242 3243 3245 3246 3247 3248 3249 3250 3251 3252 3252 3253 3254 3255 3256 3256 3257 3258 3259 3260 3260 3261 3261 3261 3262 3262 3262 3263 3263 3264 3264
3225 3227 3229 3230 3232 3233 3234 3236 3236 3237 3238 3239 3241 3242 3244 3245 3246 3247 3248 3249 3250 3251 3252 3253 3254 3254 3255 3256 3257 3258 3259 3260 3260 3260 3261 3261 3261 3261 3262 3262 3263 3263
3223 3224 3226 3228 3229 3231 3232 3233 3234 3235 3236 3237 3238 3240 3241 3242 3244 3245 3246 3247 3248 3249 3250 3251 3252 3253 3254 3255 3256 3257 3258 3258 3259 3260 3260 3260 3261 3261 3261 3262 3262 3263
3220 3222 3223 3225 3227 3228 3230 3231 3233 3234 3235 3235 3236 3237 3239 3240 3241 3243 3244 3245 3246 3247 3248 3250 3251 3252 3253 3253 3254 3255 3256 3257 3258 3258 3259 3259 3260 3260 3261 3261 3261 3262
3219 3220 3221 3222 3224 3226 3227 3229 3230 3231 3232 3234 3235 3236 3237 3238 3239 3240 3242 3243 3244 3246 3246 3248 3249 3250 3251 3252 3253 3254 3254 3255 3256 3257 3258 3258 3259 3259 3260 3260 3260 3261
3216 3218 3219 3220 3221 3222 3224 3226 3227 3228 3230 3231 3233 3234 3235 3236 3237 3239 3240 3242 3243 3244 3245 3246 3247 3249 3250 3251 3251 3252 3253 3254 3254 3255 3256 3257 3257 3258 3258 3259 3259 3259
3212 3214 3216 3218 3218 3218 3219 3222 3224 3226 3228 3229 3231 3233 3234 3235 3236 3237 3239 3240 3241 3242 3243 3244 3246 3247 3248 3249 3250 3250 3251 3252 3252 3253 3254 3255 3255 3256 3256 3256 3257 3257
3209 3210 3213 3215 3216 3215 3216 3218 3221 3223 3225 3227 3229 3230 3231 3232 3234 3235 3236 3237 3239 3240 3241 3242 3243 3244 3246 3247 3248 3249 3250 3250 3251 3252 3252 3253 3253 3254 3254 3254 3255 3255
3204 3206 3208 3210 3212 3213 3213 3215 3217 3220 3221 3223 3225 3227 3228 3229 3231 3232 3233 3234 3235 3237 3238 3239 3240 3241 3243 3244 3245 3247 3248 3248 3249 3250 3250 3251 3251 3252 3252 3253 3253 3253
3200 3202 3204 3205 3207 3209 3210 3211 3214 3216 3218 3220 3222 3223 3224 3226 3227 3228 3229 3230 3231 3233 3234 3234 3236 3238 3239 3241 3243 3244 3245 3246 3247 3248 3248 3249 3249 3249 3250 3250 3250 3251
3197 3199 3201 3202 3204 3206 3207 3208 3209 3211 3214 3216 3217 3219 3221 3222 3224 3225 3226 3227 3229 3230 3230 3231 3233 3234 3236 3238 3240 3241 3242 3243 3244 3245 3245 3246 3246 3247 3247 3247 3247 3248
3194 3196 3198 3200 3201 3203 3204 3204 3205 3207 3209 3211 3213 3215 3217 3218 3220 3221 3223 3226 3227 3227 3228 3229 3230 3231 3233 3234 3236 3238 3239 3240 3241 3242 3242 3243 3243 3244 3244 3244 3244 3244
3192 3193 3195 3197 3198 3199 3201 3202 3203 3204 3206 3208 3210 3212 3213 3215 3216 3218 3220 3222 3222 3223 3225 3227 3227 3228 3230 3231 3233 3234 3236 3237 3238 3239 3239 3240 3240 3240 3241 3241 3241 3241
3190 3191 3193 3194 3196 3197 3198 3199 3200 3202 3204 3206 3207 3209 3210 3212 3213 3214 3215 3216 3217 3220 3222 3223 3224 3226 3228 3229 3230 3231 3233 3234 3235 3236 3236 3237 3237 3237 3238 3238 3238 3238
3188 3190 3191 3193 3194 3195 3195 3197 3199 3201 3201 3202 3204 3206 3207 3208 3209 3209 3211 3212 3215 3217 3219 3220 3221 3224 3225 3226 3227 3228 3229 3230 3231 3232 3233 3234 3234 3235 3235 3235 3235 3235
Wind_Speed
12 11 10 10 9 9 9 9 9 10 10 10 10 9 8 8 7 7 7 7 8 8 8 8 8 8 8 8 7 8 8 8 8 7 7 7 7 7 6 5 5 5
13 12 11 10 9 9 8 9 9 9 10 10 9 9 8 8 8 8 8 8 8 8 8 8 9 10 10 9 8 8 9 9 8 8 8 8 7 8 7 6 6 7
14 13 13 11 10 9 9 9 9 9 10 9 9 8 8 9 9 8 8 8 8 8 9 10 10 11 11 10 9 9 9 9 9 9 9 9 8 8 8 7 8 8
14 13 13 13 12 11 10 10 9 9 9 9 9 9 8 9 9 9 9 9 9 9 10 10 11 11 11 11 10 9 9 8 8 8 9 9 9 9 9 8 8 8
15 14 14 14 14 13 12 11 10 10 10 9 10 9 9 9 9 9 10 10 10 10 10 11 11 11 11 11 11 10 9 9 8 8 8 9 9 9 9 9 9 9
16 16 15 15 15 15 13 12 12 11 11 10 11 11 11 11 10 11 11 11 11 10 11 11 12 11 12 11 11 10 9 9 8 8 8 8 8 8 9 10 10 10
16 16 16 16 16 16 15 14 13 13 12 12 12 12 12 12 12 12 12 12 11 10 10 11 11 12 12 12 11 11 10 10 9 9 9 8 8 8 9 10 11 11
16 16 17 17 18 18 17 16 15 15 14 13 13 13 13 13 13 13 13 13 12 11 10 11 11 11 11 12 12 12 11 11 10 10 9 8 8 8 9 9 10 11
17 17 17 18 19 19 18 18 17 17 16 15 15 14 14 14 14 14 14 14 13 12 11 10 10 10 11 12 12 12 12 12 11 10 10 9 8 7 7 8 9 10
19 18 18 19 19 19 19 19 19 19 18 17 17 16 16 16 16 15 15 14 13 12 12 11 10 10 10 11 12 12 13 12 12 11 10 9 8 7 7 8 9 10
21 21 20 20 19 20 20 20 21 21 20 19 18 18 17 17 17 16 15 15 14 13 12 12 12 11 10 11 12 12 13 13 12 11 11 10 9 8 7 8 9 10
23 23 23 22 21 21 21 22 22 22 22 21 20 19 19 18 18 17 16 15 15 15 14 13 13 12 11 12 12 12 12 12 12 12 12 11 10 10 9 9 9 9
25 26 25 24 23 23 23 23 23 23 23 23 22 21 20 20 19 19 18 17 17 16 15 15 15 13 13 12 12 12 12 12 12 12 12 12 12 11 10 10 10 10
27 27 27 26 25 24 24 24 25 25 24 24 24 23 22 21 20 20 20 19 19 18 17 17 16 15 14 13 13 13 13 13 13 13 13 13 12 12 11 11 11 11
28 28 28 27 26 26 25 25 25 25 25 25 25 24 24 22 22 22 22 21 20 20 19 18 17 16 15 15 15 14 14 14 14 14 13 13 13 12 12 12 12 12
29 28 28 28 27 27 26 26 26 26 26 25 25 25 25 24 24 23 23 23 22 22 21 19 18 17 17 16 16 16 16 16 15 15 14 14 14 13 13 13 13 13
29 28 30 30 29 28 27 27 27 26 26 26 25 25 25 25 25 25 24 24 23 23 22 21 20 19 19 18 18 18 18 17 17 16 16 15 15 15 15 15 15 15
29 30 32 33 31 28 27 27 28 27 26 26 26 25 25 24 25 25 25 25 24 24 23 22 21 20 20 21 20 20 19 19 18 18 18 17 17 17 16 16 16 16
30 30 32 33 32 30 29 30 29 27 26 26 25 25 25 25 24 25 25 25 25 25 24 23 23 23 22 22 22 21 21 20 20 20 20 19 19 19 18 18 18 18
30 30 32 33 33 33 33 33 32 29 26 25 25 25 25 25 25 25 26 26 26 25 25 25 25 24 24 24 23 23 23 22 22 22 22 22 22 22 21 21 20 20
28 30 33 34 35 36 37 36 35 33 30 27 26 26 26 26 26 27 27 28 27 26 26 26 26 25 25 25 24 24 25 24 24 24 24 24 24 24 24 24 23 23
26 27 29 31 34 36 38 37 36 34 32 29 29 29 28 28 27 28 28 28 28 28 28 28 27 26 25 25 25 25 25 26 26 26 26 25 25 25 25 25 25 25
22 23 24 26 29 32 34 35 34 31 29 28 29 30 31 30 29 28 28 28 28 29 28 28 28 28 27 26 25 26 26 27 27 27 27 27 26 26 26 26 26 26
18 17 18 20 21 24 27 29 30 29 29 30 31 30 30 30 29 28 28 29 30 30 29 28 28 28 28 27 27 26 26 27 27 28 28 28 28 28 27 27 26 26
16 16 17 17 18 20 21 23 26 27 28 31 33 31 30 30 29 29 30 32 33 31 29 29 29 27 26 27 27 26 26 26 26 27 28 28 28 28 28 27 27 26
16 16 15 15 16 19 20 22 24 26 27 30 32 32 32 33 33 34 33 32 31 30 29 28 28 27 27 27 27 27 27 26 26 26 27 28 28 28 28 28 27 27
Wind_Direction
205 195 192 194 191 188 181 175 176 175 174 177 180 183 185 186 189 194 199 204 205 204 207 209 212 216 221 227 229 227 227 231 231 228 225 223 223 224 220 218 223 224
210 202 198 199 197 193 190 188 188 185 181 183 185 184 183 183 186 190 196 204 208 208 208 210 213 216 217 221 222 221 224 231 234 233 232 233 234 233 228 225 225 225
214 207 202 202 203 200 197 196 197 195 190 187 187 186 183 182 184 187 192 200 207 210 212 212 215 217 217 217 216 216 220 227 231 232 235 239 241 240 234 229 228 226
218 214 208 205 207 207 204 201 201 202 201 196 192 190 189 188 188 190 193 198 204 209 212 212 215 218 217 214 213 214 216 219 222 226 233 240 244 243 238 232 229 228
217 218 215 211 211 212 210 207 206 207 207 205 201 196 194 194 193 194 197 200 202 206 209 211 212 214 213 213 213 213 214 214 215 221 229 238 244 246 243 237 232 231
214 218 219 216 215 216 215 213 213 213 212 210 208 204 200 199 198 197 199 201 203 204 207 209 209 209 210 211 212 212 212 213 215 220 225 230 238 243 244 241 236 233
215 216 219 220 219 218 218 218 219 219 218 214 213 211 206 205 204 203 201 201 204 205 207 209 209 209 210 210 209 208 210 214 217 221 223 224 231 238 241 240 235 231
218 217 218 220 221 220 219 220 222 224 224 219 216 215 213 211 211 210 206 203 204 205 207 210 213 212 213 212 210 208 209 212 216 219 218 219 228 238 238 233 228 225
221 221 219 220 222 223 221 221 222 225 227 225 221 219 216 215 215 214 211 208 207 208 209 211 214 214 215 215 212 210 211 213 215 215 213 215 226 234 232 225 221 220
221 223 223 222 222 224 223 223 224 225 227 228 227 224 220 219 219 217 215 213 212 212 212 214 217 217 216 216 215 213 212 213 215 215 211 212 220 226 226 223 220 220
219 222 223 223 221 222 223 223 224 225 227 228 229 228 224 222 222 221 219 218 217 217 215 216 218 220 220 219 218 218 216 214 215 216 213 211 214 219 221 222 223 224
219 221 223 222 220 219 220 221 222 224 226 227 228 229 228 225 224 224 223 221 221 221 219 218 218 219 220 221 221 221 220 219 217 217 215 213 212 214 216 220 226 230
220 220 223 224 221 218 218 219 221 223 224 225 226 227 228 228 226 225 224 223 223 224 223 221 218 217 219 221 222 223 223 222 221 220 220 219 218 217 217 219 225 231
222 222 223 225 225 222 220 220 221 223 224 224 225 226 227 227 227 227 226 223 223 224 225 224 222 220 219 220 222 223 223 224 224 224 226 227 228 228 226 226 228 232
223 223 224 225 227 227 224 223 223 225 225 225 226 226 226 226 227 227 227 225 223 223 224 226 226 224 223 223 223 224 225 226 227 227 229 231 233 235 235 234 235 236
227 227 228 227 228 229 228 226 225 225 227 228 229 228 227 226 226 227 228 227 226 225 224 225 227 227 228 227 227 227 228 229 230 231 232 234 236 238 240 241 241 242
229 232 234 231 227 227 230 230 229 228 228 228 230 231 231 230 229 229 229 229 228 228 228 228 229 229 230 231 231 231 233 234 235 236 237 238 239 241 243 245 246 248
227 230 234 234 228 225 228 232 232 230 231 232 231 232 233 234 234 233 233 233 232 231 232 233 234 234 234 234 234 235 236 238 240 241 243 244 244 245 246 247 248 250
229 228 232 236 235 231 231 235 236 233 233 234 235 234 233 234 235 236 236 236 235 234 234 234 236 237 238 240 240 240 241 242 244 247 249 251 252 252 252 252 252 253
233 233 233 235 236 233 232 236 238 236 236 235 235 236 236 234 234 234 235 236 236 236 235 235 235 237 239 242 244 244 245 246 247 250 252 254 256 256 257 257 256 256
236 237 236 235 234 233 231 232 232 232 235 237 236 236 237 236 236 236 234 233 234 235 235 235 236 236 238 241 244 247 249 249 250 251 252 254 256 257 259 259 259 259
238 238 237 236 236 235 234 234 232 228 228 233 236 237 238 238 238 238 237 235 235 236 237 237 237 238 239 240 243 246 249 251 252 253 254 255 256 258 260 261 261 261
242 241 240 238 238 237 236 236 233 225 223 230 235 237 239 239 239 240 241 240 239 239 240 240 240 240 240 240 242 245 248 251 253 254 255 256 258 259 260 261 262 262
243 245 246 245 243 241 238 236 231 225 223 229 236 239 240 239 239 241 241 240 240 239 238 239 240 240 242 243 244 245 247 250 253 255 256 256 257 258 259 259 260 260
238 240 242 244 245 244 239 233 232 231 228 229 233 238 239 239 240 242 241 240 240 239 238 238 239 240 242 246 247 247 249 250 252 254 255 256 257 257 257 257 257 258
231 232 236 238 240 240 236 231 231 231 229 228 231 235 239 240 241 243 243 242 242 241 241 243 242 241 243 246 247 247 247 248 249 252 254 256 257 257 257 256 257 258